• In India
  • List of Countries
  • For 7 days
  • Water Temperature
  • Satellite Maps
  • Weather Map
  • Weather Widgets
  • user-avatar
    Login

    Hourly Weather Popiv Yar

    Today, 20 June, Wednesday

    Time Temperature Precipitation Wind Pressure Humidity
    00:00 +21°C° 0 mm 1 mps 746 mmHg 64%
    01:00 +21°C° 0 mm 1 mps 746 mmHg 65%
    02:00 +19°C° 0 mm 0 mps 745 mmHg 68%
    03:00 +21°C° 0 mm 1 mps 745 mmHg 68%
    04:00 +22°C° 0 mm 1 mps 746 mmHg 68%
    05:00 +22°C° 0 mm 1 mps 746 mmHg 68%
    06:00 +24°C° 0 mm 1 mps 746 mmHg 63%
    07:00 +26°C° 0 mm 2 mps 746 mmHg 59%
    08:00 +28°C° 0 mm 2 mps 746 mmHg 54%
    09:00 +29°C° 0 mm 2 mps 746 mmHg 51%
    10:00 +30°C° 0 mm 3 mps 746 mmHg 48%
    11:00 +31°C° 0 mm 3 mps 746 mmHg 45%
    12:00 +31°C° 0 mm 3 mps 746 mmHg 45%
    13:00 +31°C° 0 mm 3 mps 746 mmHg 45%
    14:00 +33°C° 0 mm 4 mps 746 mmHg 46%
    15:00 +32°C° 0 mm 4 mps 746 mmHg 49%
    16:00 +32°C° 0 mm 4 mps 746 mmHg 52%
    17:00 +30°C° 0 mm 4 mps 746 mmHg 55%
    18:00 +28°C° 0 mm 3 mps 746 mmHg 61%
    19:00 +27°C° 0 mm 3 mps 746 mmHg 66%
    20:00 +25°C° 0 mm 3 mps 746 mmHg 72%
    21:00 +24°C° 0 mm 3 mps 747 mmHg 75%
    22:00 +22°C° 0 mm 3 mps 747 mmHg 78%
    23:00 +21°C° 0 mm 3 mps 747 mmHg 81%

    Tomorrow, 21 June, Thursday

    Time Temperature Precipitation Wind Pressure Humidity
    00:00 +20°C° 0 mm 3 mps 747 mmHg 83%
    01:00 +20°C° 0 mm 3 mps 747 mmHg 85%
    02:00 +19°C° 0 mm 2 mps 747 mmHg 88%
    03:00 +19°C° 0 mm 2 mps 747 mmHg 86%
    04:00 +19°C° 0 mm 2 mps 747 mmHg 85%
    05:00 +19°C° 0 mm 2 mps 748 mmHg 83%
    06:00 +20°C° 0 mm 3 mps 748 mmHg 75%
    07:00 +22°C° 0 mm 3 mps 748 mmHg 67%
    08:00 +25°C° 0 mm 3 mps 748 mmHg 59%
    09:00 +26°C° 0 mm 3 mps 748 mmHg 54%
    10:00 +27°C° 0 mm 3 mps 748 mmHg 48%
    11:00 +28°C° 0 mm 3 mps 747 mmHg 43%
    12:00 +29°C° 0 mm 3 mps 747 mmHg 42%
    13:00 +29°C° 0 mm 3 mps 747 mmHg 41%
    14:00 +30°C° 0 mm 3 mps 747 mmHg 40%
    15:00 +29°C° 0 mm 3 mps 746 mmHg 41%
    16:00 +29°C° 0 mm 2 mps 746 mmHg 43%
    17:00 +29°C° 0 mm 2 mps 746 mmHg 45%
    18:00 +27°C° 0 mm 2 mps 746 mmHg 50%
    19:00 +25°C° 0 mm 2 mps 746 mmHg 55%
    20:00 +24°C° 0 mm 2 mps 746 mmHg 60%
    21:00 +23°C° 0 mm 2 mps 745 mmHg 63%
    22:00 +21°C° 0 mm 2 mps 745 mmHg 65%
    23:00 +20°C° 0 mm 3 mps 745 mmHg 67%

    Day after tomorrow, 22 June, Friday

    Time Temperature Precipitation Wind Pressure Humidity
    00:00 +20°C° 0 mm 3 mps 745 mmHg 69%
    01:00 +19°C° 0 mm 2 mps 745 mmHg 71%
    02:00 +19°C° 0 mm 2 mps 745 mmHg 73%
    03:00 +19°C° 0 mm 2 mps 745 mmHg 73%
    04:00 +19°C° 0 mm 3 mps 745 mmHg 74%
    05:00 +20°C° 0 mm 3 mps 745 mmHg 75%
    06:00 +22°C° 0 mm 3 mps 745 mmHg 68%
    07:00 +25°C° 0 mm 3 mps 744 mmHg 62%
    08:00 +27°C° 0 mm 3 mps 744 mmHg 55%
    09:00 +28°C° 0 mm 3 mps 744 mmHg 51%
    10:00 +29°C° 0 mm 3 mps 744 mmHg 46%
    11:00 +30°C° 0 mm 3 mps 743 mmHg 42%
    12:00 +31°C° 0 mm 3 mps 743 mmHg 40%
    13:00 +33°C° 0 mm 3 mps 743 mmHg 38%
    14:00 +33°C° 0 mm 3 mps 742 mmHg 36%
    15:00 +32°C° 0 mm 2 mps 742 mmHg 38%
    16:00 +32°C° 0 mm 2 mps 742 mmHg 40%
    17:00 +32°C° 0 mm 2 mps 741 mmHg 42%
    18:00 +30°C° 0 mm 2 mps 741 mmHg 45%
    19:00 +28°C° 0 mm 2 mps 741 mmHg 48%
    20:00 +27°C° 0 mm 2 mps 741 mmHg 51%
    21:00 +26°C° 0 mm 3 mps 741 mmHg 52%
    22:00 +25°C° 0 mm 3 mps 741 mmHg 53%
    23:00 +25°C° 0 mm 4 mps 741 mmHg 54%

    23 June, Saturday

    Time Temperature Precipitation Wind Pressure Humidity
    00:00 +25°C° 0 mm 4 mps 740 mmHg 53%
    01:00 +23°C° 0 mm 4 mps 740 mmHg 53%
    02:00 +23°C° 0 mm 4 mps 740 mmHg 52%
    03:00 +24°C° 0.3 mm 3 mps 740 mmHg 55%
    04:00 +23°C° 0.3 mm 2 mps 739 mmHg 58%
    05:00 +23°C° 0.3 mm 2 mps 739 mmHg 62%
    06:00 +24°C° 0.3 mm 2 mps 739 mmHg 62%
    07:00 +25°C° 0.3 mm 3 mps 739 mmHg 62%
    08:00 +26°C° 0.3 mm 3 mps 739 mmHg 63%
    09:00 +27°C° 0 mm 4 mps 739 mmHg 60%
    10:00 +28°C° 0 mm 4 mps 739 mmHg 56%
    11:00 +29°C° 0 mm 5 mps 739 mmHg 53%
    12:00 +30°C° 0.2 mm 5 mps 739 mmHg 51%
    13:00 +32°C° 0.2 mm 5 mps 739 mmHg 49%
    14:00 +32°C° 0.2 mm 6 mps 739 mmHg 48%
    15:00 +29°C° 1.1 mm 6 mps 739 mmHg 57%
    16:00 +27°C° 1.1 mm 5 mps 739 mmHg 67%
    17:00 +23°C° 1.1 mm 5 mps 739 mmHg 77%
    18:00 +21°C° 0.6 mm 5 mps 740 mmHg 81%
    19:00 +19°C° 0.6 mm 5 mps 740 mmHg 84%
    20:00 +17°C° 0.6 mm 6 mps 741 mmHg 88%
    21:00 +16°C° 0.1 mm 6 mps 742 mmHg 87%
    22:00 +15°C° 0.1 mm 6 mps 742 mmHg 86%
    23:00 +14°C° 0.1 mm 6 mps 743 mmHg 86%

    24 June, Sunday

    Time Temperature Precipitation Wind Pressure Humidity
    00:00 +13°C° 0 mm 5 mps 743 mmHg 85%
    01:00 +13°C° 0 mm 5 mps 743 mmHg 85%
    02:00 +12°C° 0 mm 5 mps 744 mmHg 84%
    03:00 +12°C° 0 mm 5 mps 744 mmHg 84%
    04:00 +12°C° 0 mm 5 mps 745 mmHg 84%
    05:00 +10°C° 0 mm 5 mps 745 mmHg 84%
    06:00 +13°C° 0 mm 5 mps 746 mmHg 76%
    07:00 +15°C° 0 mm 5 mps 746 mmHg 69%
    08:00 +16°C° 0 mm 5 mps 746 mmHg 61%
    09:00 +19°C° 0 mm 5 mps 747 mmHg 56%
    10:00 +20°C° 0 mm 5 mps 747 mmHg 52%
    11:00 +22°C° 0 mm 5 mps 747 mmHg 48%
    12:00 +22°C° 0 mm 5 mps 747 mmHg 46%
    13:00 +23°C° 0 mm 5 mps 747 mmHg 44%
    14:00 +25°C° 0 mm 5 mps 747 mmHg 42%
    15:00 +25°C° 0 mm 5 mps 747 mmHg 44%
    16:00 +23°C° 0 mm 4 mps 747 mmHg 45%
    17:00 +23°C° 0 mm 4 mps 747 mmHg 46%
    18:00 +21°C° 0 mm 4 mps 747 mmHg 52%
    19:00 +20°C° 0 mm 3 mps 748 mmHg 57%
    20:00 +18°C° 0 mm 2 mps 748 mmHg 63%
    21:00 +17°C° 0 mm 2 mps 748 mmHg 65%
    22:00 +17°C° 0 mm 2 mps 748 mmHg 67%
    23:00 +16°C° 0 mm 2 mps 748 mmHg 70%

    25 June, Monday

    Time Temperature Precipitation Wind Pressure Humidity
    00:00 +16°C° 0 mm 2 mps 748 mmHg 71%
    01:00 +15°C° 0 mm 2 mps 748 mmHg 73%
    02:00 +15°C° 0 mm 2 mps 748 mmHg 74%
    03:00 +15°C° 0 mm 2 mps 749 mmHg 75%
    04:00 +15°C° 0 mm 2 mps 749 mmHg 75%
    05:00 +16°C° 0 mm 2 mps 749 mmHg 75%
    06:00 +18°C° 0 mm 2 mps 749 mmHg 69%
    07:00 +20°C° 0 mm 3 mps 749 mmHg 62%
    08:00 +22°C° 0 mm 3 mps 750 mmHg 55%
    09:00 +24°C° 0 mm 3 mps 750 mmHg 51%
    10:00 +25°C° 0 mm 3 mps 749 mmHg 47%
    11:00 +26°C° 0 mm 3 mps 749 mmHg 43%
    12:00 +26°C° 0 mm 3 mps 749 mmHg 41%
    13:00 +27°C° 0 mm 3 mps 749 mmHg 40%
    14:00 +28°C° 0 mm 3 mps 749 mmHg 39%
    15:00 +27°C° 0 mm 3 mps 749 mmHg 41%
    16:00 +27°C° 0 mm 4 mps 749 mmHg 43%
    17:00 +27°C° 0 mm 4 mps 749 mmHg 45%
    18:00 +25°C° 0 mm 3 mps 749 mmHg 51%
    19:00 +22°C° 0 mm 3 mps 749 mmHg 57%
    20:00 +20°C° 0 mm 3 mps 749 mmHg 63%
    21:00 +19°C° 0 mm 3 mps 749 mmHg 65%
    22:00 +19°C° 0 mm 2 mps 749 mmHg 67%
    23:00 +18°C° 0 mm 2 mps 749 mmHg 69%
    Show more